Bedford, MA

6:00 PM EDT on August 23, 2016 (GMT -0400)
Hanscom

Weather History for KBED - May, 2014

Change the Weather History Date:

Saturday, May 17, 2014

  Actual Average Record
Temperature  
Mean Temperature 64 °F -  
Max Temperature 73 °F 71 °F 90 °F (1977)
Min Temperature 53 °F 48 °F 33 °F (2003)
Degree Days  
Heating Degree Days 1    
Growing Degree Days 14 (Base 50)    
Moisture  
Dew Point 56 °F    
Average Humidity 78    
Maximum Humidity 100    
Minimum Humidity 33    
Precipitation  
Precipitation 0.62 in - - ()
Sea Level Pressure  
Sea Level Pressure 29.93 in    
Wind  
Wind Speed 11 mph (SW)    
Max Wind Speed 20 mph    
Max Gust Speed 31 mph    
Visibility 8 miles    
Events Rain    
Averages and records for this station are not official NWS values.
T = Trace of Precipitation, MM = Missing Value Source: NWS Daily Summary

Daily Weather History Graph

Daily Weather History Graph

Search for Another Location

Airport or City:

Trip Planner

Search our weather history database for the weather conditions in past years. The results will help you decide how hot, cold, wet, or windy it might be!

Date:

Astronomy

May. 17, 2014 Rise Set
Actual Time 5:21 AM EDT 8:02 PM EDT
Civil Twilight 4:49 AM EDT 8:34 PM EDT
Nautical Twilight 4:08 AM EDT 9:15 PM EDT
Astronomical Twilight 3:21 AM EDT 10:02 PM EDT
Moon 10:59 PM EDT (5/17) 8:01 AM EDT (5/17)
Length of Visible Light 15h 45m
Length of Day
14h 40m
Waning Gibbous, 89% of the Moon is Illuminated
May 17
Waning Gibbous
May 21
Last Quarter
May 28
New
Jun 5
First Quarter
Jun 13
Full

Hourly Weather History & Observations

Time (EDT) Temp. Dew Point Humidity Pressure Visibility Wind Dir Wind Speed Gust Speed Precip Events Conditions
12:56 AM 64.0 °F 64.0 °F 100% 29.97 in 8.0 mi SSE 12.7 mph 24.2 mph 0.00 in   Overcast
1:56 AM 64.9 °F 64.0 °F 97% 29.93 in 8.0 mi SSE 15.0 mph - 0.01 in Rain Light Rain
2:34 AM 64.9 °F 64.0 °F 97% 29.88 in 10.0 mi SSE 13.8 mph 24.2 mph 0.00 in   Overcast
2:56 AM 64.9 °F 64.0 °F 97% 29.91 in 10.0 mi SSE 17.3 mph 29.9 mph 0.00 in   Overcast
3:56 AM 66.0 °F 64.0 °F 93% 29.88 in 10.0 mi SSE 19.6 mph 31.1 mph N/A   Overcast
4:56 AM 64.9 °F 64.9 °F 100% 29.87 in 8.0 mi SSE 11.5 mph - 0.04 in Rain Light Rain
5:56 AM 64.9 °F 64.9 °F 100% 29.88 in 4.0 mi South 15.0 mph 26.5 mph 0.10 in Rain Rain
6:21 AM 64.9 °F 64.9 °F 100% 29.85 in 2.0 mi South 13.8 mph - 0.23 in Rain Heavy Rain
6:25 AM 64.9 °F 64.9 °F 100% 29.85 in 1.8 mi South 9.2 mph - 0.27 in Rain Heavy Rain
6:34 AM 64.9 °F 64.9 °F 100% 29.85 in 2.0 mi SSW 13.8 mph 21.9 mph 0.31 in Rain Rain
6:46 AM 64.9 °F 64.9 °F 100% 29.86 in 4.0 mi SSW 11.5 mph - 0.34 in Rain Rain
6:53 AM 64.4 °F 64.4 °F 100% 29.85 in 2.5 mi Variable 3.5 mph - 0.37 in Rain Rain
6:56 AM 64.9 °F 64.9 °F 100% 29.89 in 2.5 mi SSW 8.1 mph - 0.38 in Rain Rain
7:04 AM 64.0 °F 64.0 °F 100% 29.86 in 3.0 mi SW 9.2 mph - 0.02 in Rain Rain
7:16 AM 64.0 °F 64.0 °F 100% 29.86 in 3.0 mi SSW 6.9 mph - 0.05 in Rain Rain
7:23 AM 64.0 °F 64.0 °F 100% 29.87 in 7.0 mi South 6.9 mph - 0.06 in Rain Light Rain
7:31 AM 64.4 °F 64.4 °F 100% 29.88 in 3.0 mi WSW 5.8 mph - N/A Rain Rain
7:38 AM 63.0 °F 63.0 °F 100% 29.87 in 4.0 mi West 8.1 mph - 0.09 in Rain Light Rain
7:56 AM 63.0 °F 63.0 °F 100% 29.90 in 10.0 mi West 4.6 mph - 0.09 in   Mostly Cloudy
8:24 AM 63.0 °F 62.1 °F 97% 29.88 in 10.0 mi West 5.8 mph - N/A   Overcast
8:45 AM 63.0 °F 62.1 °F 97% 29.88 in 10.0 mi SW 5.8 mph - N/A   Mostly Cloudy
8:56 AM 64.0 °F 60.1 °F 87% 29.92 in 10.0 mi West 9.2 mph - N/A   Mostly Cloudy
9:56 AM 62.1 °F 57.9 °F 86% 29.94 in 10.0 mi WSW 10.4 mph - N/A   Mostly Cloudy
10:56 AM 64.9 °F 55.0 °F 70% 29.95 in 10.0 mi WSW 9.2 mph - N/A   Clear
11:56 AM 66.0 °F 52.0 °F 60% 29.96 in 10.0 mi WSW 6.9 mph - N/A   Clear
12:56 PM 69.1 °F 51.1 °F 53% 29.95 in 10.0 mi West 9.2 mph - N/A   Clear
1:56 PM 72.0 °F 45.0 °F 38% 29.95 in 10.0 mi SW 10.4 mph 19.6 mph N/A   Clear
2:56 PM 73.0 °F 42.1 °F 33% 29.96 in 10.0 mi West 12.7 mph - N/A   Clear
3:56 PM 72.0 °F 42.1 °F 34% 29.96 in 10.0 mi SW 10.4 mph - N/A   Clear
4:56 PM 71.1 °F 42.1 °F 35% 29.97 in 10.0 mi West 10.4 mph - N/A   Clear
5:56 PM 70.0 °F 42.1 °F 36% 29.99 in 10.0 mi West 9.2 mph - N/A   Clear
6:56 PM 66.9 °F 42.1 °F 40% 30.00 in 10.0 mi West 9.2 mph - N/A   Clear
7:56 PM 62.1 °F 39.9 °F 44% 30.03 in 10.0 mi WNW 8.1 mph - N/A   Clear
8:56 PM 57.9 °F 37.9 °F 47% 30.05 in 10.0 mi WNW 6.9 mph - N/A   Clear
9:56 PM 55.9 °F 37.0 °F 49% 30.08 in 10.0 mi WNW 5.8 mph - N/A   Clear
10:56 PM 55.0 °F 37.0 °F 51% 30.09 in 10.0 mi West 3.5 mph - N/A   Clear
11:56 PM 53.6 °F 37.4 °F 54% 30.06 in 10.0 mi WNW 4.6 mph - N/A   Clear